Regional Weather Roundup
Issued by NWS

Home | Current Version | Previous Version | Text Only | Print | Product List | Glossary Off
Versions: 1 2 3 4 5 6 7 8 9 10 11 12 13 14 15 16 17 18 19 20 21 22 23 24 25 26 27 28 29 30 31 32 33 34 35 36 37 38 39 40 41 42 43 44 45 46 47 48 49 50

000
ASUS43 KLSX 230659
RWRMO

WEATHER SUMMARY FOR MISSOURI
NATIONAL WEATHER SERVICE SPRINGFIELD MO
200 AM CDT THU OCT 23 2014

NOTE: "FAIR" INDICATES FEW OR NO CLOUDS BELOW 12,000 FEET WITH NO
       SIGNIFICANT WEATHER AND/OR OBSTRUCTIONS TO VISIBILITY.
       CURRENT SKY AND/OR WEATHER CONDITIONS ARE NOT AVAILABLE FOR
       CHILLICOTHE AND FARMINGTON.

MOZ001>031-035>038-043-044-053-054-230800-
...NORTHERN AND WESTERN MISSOURI...

CITY           SKY/WX    TMP DP  RH WIND       PRES   REMARKS
KANSAS CTY INT CLOUDY    61  52  72 S12       30.09S
KANSAS C DTWN  CLOUDY    64  51  62 S8        30.09F
LEE`S SUMMIT   CLOUDY    58  49  72 S9        30.11F
ST JOSEPH      RAIN      59  55  87 SW5       30.11R FOG
KIRKSVILLE     PTCLDY    48  43  82 S9        30.15F

$$
MOZ066>068-077>081-088>096-101>105-230800-
...SOUTHWEST MISSOURI...

CITY           SKY/WX    TMP DP  RH WIND       PRES   REMARKS
SPRINGFIELD    PTCLDY    52  45  77 SE12      30.15F
JOPLIN         CLOUDY    58  51  78 S8        30.14S

$$
MOZ032>034-039>042-045>050-055>058-069>072-230800-
...CENTRAL MISSOURI...

CITY           SKY/WX    TMP DP  RH WIND       PRES   REMARKS
COLUMBIA       CLEAR     47  41  80 SE9       30.17S
JEFFERSON CITY CLEAR     46  40  79 E7        30.18S
ROLLA          CLEAR     43  38  82 SE7       30.17F
SEDALIA        CLEAR     50  45  83 S9        30.16S
OSAGE BEACH    CLEAR     48  41  76 S6        30.18R

$$
MOZ051-052-059>065-230800-
...EAST CENTRAL MISSOURI...

CITY           SKY/WX    TMP DP  RH WIND       PRES   REMARKS
ST LOUIS INTL  PTCLDY    46  39  76 SE5       30.22S
SPIRIT OF STL  FOG       37  36  96 CALM      30.21S VSB 1
ST CHARLES     CLEAR     42  39  89 E5        30.22S

$$
MOZ072>076-082>087-097>100-106>115-230800-
...SOUTH CENTRAL AND SOUTHEAST MISSOURI...

CITY           SKY/WX    TMP DP  RH WIND       PRES   REMARKS
CAPE GIRARDEAU CLEAR     41  40  96 CALM      30.22S
FARMINGTON     CLEAR     37  37 100 CALM      30.23S
POPLAR BLUFF   CLEAR     41  38  89 CALM      30.21S
WEST PLAINS    CLEAR     40  36  86 CALM      30.20F

$$



USA.gov is the U.S. government's official web portal to all federal, state and local government web resources and services.